This is the latest recevied weather packets stored in our database for station/object YO6SAY-10. If no packets are shown the sender has not sent any weather packets the latest 1 day(s).
| Time | Temp. | Humidity | Pressure | Rain* | Wind** | Luminosity | Snow |
|---|---|---|---|---|---|---|---|
| 1777824036 | 25.56° C | 27% | 951.4 hPa | - | - | - | - |
| 1777823136 | 26.67° C | 27% | 951.5 hPa | - | - | - | - |
| 1777822236 | 27.22° C | 26% | 951.6 hPa | - | - | - | - |
| 1777821335 | 28.33° C | 26% | 951.8 hPa | - | - | - | - |
| 1777820434 | 29.44° C | 26% | 951.8 hPa | - | - | - | - |
| 1777819534 | 30° C | 25% | 952 hPa | - | - | - | - |
| 1777818634 | 30.56° C | 26% | 952.1 hPa | - | - | - | - |
| 1777817734 | 31.11° C | 26% | 952.3 hPa | - | - | - | - |
| 1777816834 | 31.67° C | 26% | 952.5 hPa | - | - | - | - |
| 1777815934 | 32.22° C | 26% | 952.7 hPa | - | - | - | - |
| 1777815033 | 32.22° C | 26% | 953 hPa | - | - | - | - |
| 1777814133 | 32.78° C | 26% | 953.2 hPa | - | - | - | - |
| 1777813233 | 32.78° C | 27% | 953.4 hPa | - | - | - | - |
| 1777812333 | 32.22° C | 27% | 953.6 hPa | - | - | - | - |
| 1777811433 | 31.67° C | 28% | 953.7 hPa | - | - | - | - |
| 1777810532 | 30° C | 28% | 953.8 hPa | - | - | - | - |
| 1777809632 | 27.22° C | 30% | 954 hPa | - | - | - | - |
| 1777808732 | 23.89° C | 32% | 954 hPa | - | - | - | - |
| 1777807831 | 18.89° C | 36% | 954.2 hPa | - | - | - | - |
| 1777806931 | 12.78° C | 40% | 954.3 hPa | - | - | - | - |
| 1777806031 | 11.67° C | 40% | 954.5 hPa | - | - | - | - |
| 1777805131 | 11.11° C | 41% | 954.7 hPa | - | - | - | - |
| 1777804231 | 11.67° C | 41% | 954.8 hPa | - | - | - | - |
| 1777803331 | 11.11° C | 41% | 955 hPa | - | - | - | - |
| 1777802431 | 11.11° C | 42% | 955.1 hPa | - | - | - | - |
* Rain since midnight (hover to see other rain measurements)
** Current wind speed in m/s (hover to see current wind gust speed)